Regional Weather Roundup
Issued by NWS Upton, NY

Current Version | Previous Version | Graphics & Text | Print | Product List | Glossary Off
Versions: 1 2 3 4 5 6 7 8 9 10 11 12 13 14 15 16 17 18 19 20 21 22 23 24 25 26 27 28 29 30 31 32 33 34 35 36 37 38 39 40 41 42 43 44 45 46 47 48 49

000
ASUS41 KOKX 220305
RWROKX

REGIONAL WEATHER ROUNDUP
NATIONAL WEATHER SERVICE NEW YORK NY
1100 PM EDT THU AUG 21 2014

NOTE: "FAIR" INDICATES FEW OR NO CLOUDS BELOW 12,000 FEET WITH NO
SIGNIFICANT WEATHER AND/OR OBSTRUCTIONS TO VISIBILITY.

NYZ071-072-176-178-NJZ106-104-220400-
NEW YORK CITY METRO AREA


CITY           SKY/WX    TMP DP  RH WIND       PRES   REMARKS
CENTRAL PARK   LGT RAIN  72  63  73 CALM      30.05F
LAGUARDIA APRT CLOUDY    73  64  73 S13       30.02F THUNDER
KENNEDY INTL   CLOUDY    73  66  78 SE9       30.04F
NEWARK/LIBERTY TSTM      72  65  78 S8        30.03R
BRNX BOT. GARD   N/A     70  64  83 N5        30.05R
TETERBORO      TSTM      71  64  78 S8G22     30.02S
$$

NYZ177-179-078>081-220400-
LONG ISLAND NEW YORK

CITY           SKY/WX    TMP DP  RH WIND       PRES   REMARKS
FARMINGDALE    MOCLDY    70  65  84 SE10      30.04F
ISLIP          CLOUDY    71  63  75 SE10      30.03S
SHIRLEY        CLOUDY    70  63  78 SE6       30.05F
WESTHAMPTON    CLOUDY    69  62  78 S5        30.07S
MONTAUK POINT    N/A     69  64  84 CALM      30.07F
$$

NYZ052-065-067-220400-
HUDSON VALLEY

CITY           SKY/WX    TMP DP  RH WIND       PRES   REMARKS
WHITE PLAINS   LGT RAIN  68  66  93 NE3       30.06R FOG
NEWBURGH       PTCLDY    66  63  88 SE7       30.06R
MONTGOMERY     CLOUDY    65  63  93 CALM      30.05R
POUGHKEEPSIE   CLOUDY    68  65  90 S5        30.04R
ALBANY         CLOUDY    71  62  73 S6        30.02S
$$

NJZ001-105-106-008-010-013-015-019>022-104-220400-
NEW JERSEY

CITY           SKY/WX    TMP DP  RH WIND       PRES   REMARKS
NEWARK/LIBERTY TSTM      72  65  78 S8        30.03R
TETERBORO      TSTM      71  64  78 S8G22     30.02S
CALDWELL       LGT RAIN  66  62  87 N5        30.05R FOG
MORRISTOWN     TSTM      68  64  88 W3        30.05R
SOMERVILLE     TSTM      67  65  93 VRB3      30.05R FOG
LINDEN         MOCLDY    76  67  74 SW3       30.06S
SUSSEX         LGT RAIN  68  65  90 CALM        N/A
ANDOVER          N/A     66  64  93 CALM      30.04R
TRENTON        LGT RAIN  71  64  78 S6        30.01S
MILLVILLE      CLOUDY    72  68  87 CALM      30.01S
ATLANTIC CITY  MOCLDY    72  67  84 S7        30.02S
WRIGHTSTOWN    CLOUDY    69  65  86 VRB3      29.99F
TOMS RIVER     MOCLDY    68  63  83 CALM      30.02F
BELMAR         MOCLDY    72  63  73 SE6       30.03S
$$

PAZ047>061-062-071-220400-
EASTERN PENNSYLVANIA

CITY           SKY/WX    TMP DP  RH WIND       PRES   REMARKS
PHILADELPHIA   MOCLDY    74  67  78 S5        30.01S
ALLENTOWN      CLOUDY    71  66  84 E9        30.02S
SCRANTON       MOCLDY    72  64  76 CALM      30.01F
$$

CTZ002-004>006-009-010-012-RIZ004-006-007-MAZ004-011-015-220400-
SOUTHERN NEW ENGLAND
 IN CT

CITY           SKY/WX    TMP DP  RH WIND       PRES   REMARKS
BRADLEY INTL   CLOUDY    69  64  84 SE5       30.05R
HARTFORD       CLOUDY    70  61  73 S6        30.06R
DANBURY        CLOUDY    68  64  87 SE3       30.08R
WTRBRY/OXFORD  CLOUDY    66  61  82 S7        30.09R
BRIDGEPORT     CLOUDY    71  64  78 SE8       30.05R
MERIDEN        CLOUDY    70  62  76 SE3       30.06R
NEW HAVEN      CLOUDY    72  63  73 S7        30.06R
CHESTER        CLOUDY    66  63  88 CALM      30.08S
GROTON         MOCLDY    67  64  90 CALM      30.06S
WILLIMANTIC    CLOUDY    68  62  81 CALM      30.08R

 IN RI

CITY           SKY/WX    TMP DP  RH WIND       PRES   REMARKS
PROVIDENCE     CLOUDY    68  62  81 W3        30.08S
BLOCK ISLAND   CLOUDY    66  61  82 E6        30.07F
WESTERLY       CLOUDY    68  62  81 NE3       30.06F

 IN MA

CITY           SKY/WX    TMP DP  RH WIND       PRES   REMARKS
BOSTON         CLOUDY    67  64  90 NE6       30.09S
WORCESTER      LGT RAIN  61  60  97 NE5       30.10S FOG
WESTFIELD      CLOUDY    68  64  87 N3        30.06R
PROVINCETOWN   PTCLDY    63  61  94 MISG      30.08S
NANTUCKET      CLEAR     60  58  92 N5        30.06S
$$

ANZ330-335-338-340-345-350-353-355-220400-
COASTAL MARINE OBSERVATIONS


STATION/POSITION TIME  SKY/WX   TEMP    WIND        PRES    VSBY  WAVE
                                AIR SEA DIR/SP/G                  HT/PER
                 (UTC)          (F)     (DEG/KT/KT) (MB)    (MI)  (FT/S)
NY HARB ENTRANCE NOT AVBL
4S FIRE IS       NOT AVBL
23SW MTP         0300            69 70              1017.4          4/ 7
HUDSON CANYON    0300            72 74  100/  8/  8 1017.3          4/ 7
EXECUTION ROCKS  0300            72 73  160/  6/ 10   N/A
WESTERN LI SOUND 0300            72     130/  8/ 12   N/A           1
CENTRAL LI SOUND 0200            70 73  130/ 10/ 12   N/A           1/ 2
EASTERN LI SOUND 0200            69 69  100/  6/  8   N/A
ROBBINS REEF     0300            72     160/  6/  7   N/A
$$


>>>>>>>>>>>>>>>>>>>>>>>>>>>> KEY <<<<<<<<<<<<<<<<<<<<<<<<<<<
>                                                          <
>     SKY/WX - SKY CONDITION/PRESENT WEATHER               <
>     TMP    - TEMPERATURE IN FAHRENHEIT                   <
>     DP     - DEWPOINT IN FAHRENHEIT                      <
>     RH     - RELATIVE HUMIDITY IN PERCENT                <
>     WIND   - DIRECTION AND SPEED IN MPH                  <
>     PRES   - MEAN SEA LEVEL PRESSURE IN INCHES OF HG     <
>     WCI    - WIND CHILL INDEX                            <
>     VSB    - VISIBILITY IN MILES                         <
>     HX     - HEAT INDEX                                  <
>     TC     - TEMPERATURE IN CELSIUS                      <
>     VRB    - VARIABLE WIND DIRECTION                     <
>                                                          <
>>>>>>>>>>>>>>>>>>>>>>>>>>>> KEY <<<<<<<<<<<<<<<<<<<<<<<<<<<





USA.gov is the U.S. government's official web portal to all federal, state and local government web resources and services.